TimeEDT,TemperatureF,Dew PointF,Humidity,Sea Level PressureIn,VisibilityMPH,Wind Direction,Wind SpeedMPH,Gust SpeedMPH,PrecipitationIn,Events,Conditions,WindDirDegrees,DateUTC
12:04 AM,68.4,66.0,92,30.06,10.0,Calm,Calm,-,N/A,,Clear,0,2013-06-16 04:04:00
12:24 AM,68.9,66.2,91,30.06,10.0,Calm,Calm,-,N/A,,Clear,0,2013-06-16 04:24:00
12:44 AM,68.0,65.8,93,30.06,10.0,Calm,Calm,-,N/A,,Clear,0,2013-06-16 04:44:00
1:04 AM,67.1,66.2,97,30.07,10.0,Calm,Calm,-,N/A,,Clear,0,2013-06-16 05:04:00
1:24 AM,66.4,66.4,100,30.06,10.0,Calm,Calm,-,N/A,,Clear,0,2013-06-16 05:24:00
1:44 AM,66.6,65.7,97,30.06,10.0,Calm,Calm,-,N/A,,Clear,0,2013-06-16 05:44:00
2:04 AM,66.9,66.2,98,30.06,10.0,Calm,Calm,-,N/A,,Clear,0,2013-06-16 06:04:00
2:24 AM,66.7,66.7,100,30.05,10.0,Calm,Calm,-,N/A,,Clear,0,2013-06-16 06:24:00
2:44 AM,66.7,66.7,100,30.05,10.0,Calm,Calm,-,N/A,,Clear,0,2013-06-16 06:44:00
3:04 AM,66.9,66.9,100,30.05,10.0,Calm,Calm,-,N/A,,Clear,0,2013-06-16 07:04:00
3:24 AM,67.6,67.6,100,30.05,10.0,Calm,Calm,-,N/A,,Scattered Clouds,0,2013-06-16 07:24:00
3:44 AM,67.5,67.5,100,30.04,10.0,Calm,Calm,-,N/A,,Scattered Clouds,0,2013-06-16 07:44:00
4:04 AM,68.0,68.0,100,30.04,10.0,Calm,Calm,-,N/A,,Clear,0,2013-06-16 08:04:00
4:24 AM,67.3,67.3,100,30.05,10.0,Calm,Calm,-,N/A,,Clear,0,2013-06-16 08:24:00
4:44 AM,68.2,68.2,100,30.04,10.0,Calm,Calm,-,N/A,,Clear,0,2013-06-16 08:44:00
5:04 AM,68.5,68.5,100,30.04,10.0,Calm,Calm,-,N/A,,Clear,0,2013-06-16 09:04:00
5:24 AM,68.0,68.0,100,30.04,10.0,Calm,Calm,-,N/A,,Clear,0,2013-06-16 09:24:00
5:44 AM,67.3,67.3,100,30.04,10.0,Calm,Calm,-,N/A,,Clear,0,2013-06-16 09:44:00
5:50 AM,68.0,68.0,100,30.04,7.0,Calm,Calm,-,N/A,,Overcast,0,2013-06-16 09:50:00
6:04 AM,67.6,67.6,100,30.04,10.0,Calm,Calm,-,N/A,,Clear,0,2013-06-16 10:04:00
6:24 AM,68.7,68.7,100,30.04,10.0,Calm,Calm,-,N/A,,Clear,0,2013-06-16 10:24:00
6:44 AM,70.0,70.0,100,30.03,10.0,Calm,Calm,-,N/A,,Clear,0,2013-06-16 10:44:00
6:55 AM,71.6,71.6,100,30.03,10.0,Calm,Calm,-,N/A,,Overcast,0,2013-06-16 10:55:00
7:04 AM,70.7,70.7,100,30.03,10.0,Calm,Calm,-,N/A,,Clear,0,2013-06-16 11:04:00
7:24 AM,71.1,68.4,91,30.03,10.0,Calm,Calm,-,N/A,,Clear,0,2013-06-16 11:24:00
7:43 AM,71.4,68.4,90,30.03,10.0,SW,5.8,-,N/A,,Clear,220,2013-06-16 11:43:00
7:50 AM,71.6,68.0,88,30.03,10.0,SSW,6.9,-,N/A,,Overcast,210,2013-06-16 11:50:00
8:50 AM,73.4,66.2,78,30.02,10.0,SW,9.2,-,N/A,,Mostly Cloudy,230,2013-06-16 12:50:00
9:46 AM,75.2,66.2,73,30.01,10.0,SW,8.1,-,N/A,,Mostly Cloudy,230,2013-06-16 13:46:00
10:48 AM,80.6,66.2,61,30.00,10.0,North,-9999.0,-,N/A,,Mostly Cloudy,0,2013-06-16 14:48:00
11:53 AM,82.4,68.0,62,29.99,10.0,West,8.1,-,N/A,,Mostly Cloudy,260,2013-06-16 15:53:00
12:50 PM,82.4,66.2,58,29.97,10.0,SW,12.7,-,N/A,,Scattered Clouds,220,2013-06-16 16:50:00
1:53 PM,84.2,66.2,55,29.95,10.0,SW,10.4,-,N/A,,Scattered Clouds,230,2013-06-16 17:53:00
2:53 PM,82.4,68.0,62,29.94,10.0,WSW,11.5,17.3,N/A,,Overcast,240,2013-06-16 18:53:00
3:53 PM,82.4,68.0,62,29.93,10.0,WSW,8.1,-,N/A,,Overcast,240,2013-06-16 19:53:00
4:53 PM,82.4,69.8,66,29.93,10.0,WSW,8.1,-,N/A,,Overcast,240,2013-06-16 20:53:00
5:53 PM,82.4,68.0,62,29.92,10.0,West,3.5,-,N/A,,Overcast,260,2013-06-16 21:53:00
6:53 PM,80.6,68.0,65,29.92,10.0,Calm,Calm,-,N/A,,Overcast,0,2013-06-16 22:53:00
7:53 PM,78.8,71.6,78,29.93,10.0,Calm,Calm,-,N/A,,Mostly Cloudy,0,2013-06-16 23:53:00
8:53 PM,77.0,69.8,78,29.94,10.0,Calm,Calm,-,N/A,,Mostly Cloudy,0,2013-06-17 00:53:00
11:06 PM,75.2,69.8,83,29.96,10.0,Calm,Calm,-,N/A,,Clear,0,2013-06-17 03:06:00
11:26 PM,74.5,69.8,85,29.95,10.0,Calm,Calm,-,N/A,,Clear,0,2013-06-17 03:26:00
11:46 PM,73.9,70.0,87,29.95,10.0,Calm,Calm,-,N/A,,Clear,0,2013-06-17 03:46:00